QPF
0.00 0.00 0.00 0.00 0.00 0.00 0.02 0.09 0.20 0.19 0.11 0.04 0.04 0.01 0.00 0.00 0.00 0.00 0.04 0.04 0.00 0.00 0.00 0.00 0.01 0.02 0.02 0.01 0.01 0.01 0.01 0.00 0.01 0.05 0.09 0.04 0.01 0.01 0.02 0.03 0.02 0.03 0.01
0.00 0.00 0.00 0.00 0.00 0.00 0.00 0.01 0.08 0.17 0.24 0.16 0.08 0.03 0.00 0.00 0.00 0.00 0.01 0.04 0.01 0.00 0.00 0.00 0.03 0.03 0.03 0.03 0.01 0.00 0.01 0.01 0.04 0.07 0.08 0.03 0.01 0.00 0.00 0.00 0.00 0.00 0.00
0.00 0.00 0.00 0.00 0.00 0.00 0.00 0.00 0.01 0.06 0.13 0.18 0.15 0.10 0.04 0.00 0.00 0.00 0.00 0.01 0.01 0.00 0.00 0.00 0.01 0.03 0.02 0.02 0.01 0.02 0.01 0.01 0.02 0.04 0.10 0.05 0.00 0.00 0.00 0.00 0.00 0.00 0.00
0.00 0.00 0.00 0.00 0.00 0.00 0.00 0.00 0.00 0.01 0.04 0.09 0.11 0.12 0.06 0.01 0.00 0.00 0.00 0.00 0.00 0.00 0.00 0.00 0.00 0.01 0.02 0.02 0.01 0.02 0.00 0.01 0.01 0.02 0.05 0.04 0.00 0.00 0.00 0.00 0.00 0.00 0.00
0.00 0.00 0.00 0.00 0.00 0.00 0.00 0.00 0.00 0.01 0.01 0.02 0.03 0.06 0.11 0.05 0.00 0.00 0.00 0.00 0.00 0.00 0.00 0.00 0.00 0.00 0.01 0.01 0.00 0.02 0.02 0.01 0.01 0.03 0.07 0.05 0.02 0.00 0.00 0.00 0.00 0.00 0.00
0.00 0.00 0.00 0.00 0.00 0.00 0.00 0.00 0.00 0.00 0.01 0.01 0.01 0.01 0.02 0.07 0.05 0.00 0.00 0.00 0.00 0.00 0.00 0.00 0.00 0.00 0.00 0.00 0.00 0.00 0.01 0.00 0.00 0.02 0.03 0.03 0.01 0.00 0.00 0.00 0.00 0.00 0.00
0.00 0.00 0.00 0.00 0.00 0.00 0.00 0.00 0.00 0.00 0.00 0.02 0.04 0.04 0.06 0.11 0.15 0.05 0.01 0.02 0.00 0.00 0.00 0.00 0.02 0.00 0.00 0.00 0.00 0.00 0.01 0.01 0.01 0.02 0.03 0.01 0.00 0.00 0.00 0.00 0.00 0.00 0.00
0.00 0.00 0.00 0.00 0.00 0.00 0.00 0.00 0.00 0.00 0.00 0.01 0.03 0.05 0.11 0.27 0.17 0.13 0.10 0.09 0.05 0.00 0.01 0.00 0.01 0.00 0.00 0.00 0.00 0.00 0.00 0.01 0.02 0.01 0.00 0.00 0.00 0.00 0.00 0.00 0.00 0.00 0.00
0.00 0.00 0.00 0.00 0.00 0.00 0.00 0.00 0.00 0.00 0.01 0.01 0.03 0.05 0.04 0.26 0.42 0.36 0.20 0.13 0.08 0.06 0.06 0.02 0.00 0.00 0.00 0.00 0.00 0.00 0.00 0.00 0.00 0.01 0.00 0.00 0.00 0.00 0.00 0.00 0.00 0.00 0.00
0.00 0.00 0.00 0.00 0.00 0.01 0.01 0.00 0.00 0.00 0.01 0.01 0.03 0.05 0.05 0.05 0.08 0.13 0.25 0.25 0.15 0.10 0.08 0.05 0.02 0.00 0.00 0.00 0.00 0.00 0.00 0.00 0.00 0.00 0.00 0.00 0.00 0.00 0.00 0.00 0.00 0.00 0.00
0.00 0.00 0.00 0.00 0.00 0.00 0.01 0.00 0.00 0.00 0.00 0.02 0.02 0.03 0.05 0.03 0.03 0.24 0.24 0.15 0.11 0.11 0.09 0.08 0.05 0.02 0.00 0.00 0.00 0.00 0.00 0.00 0.00 0.00 0.00 0.00 0.00 0.00 0.00 0.00 0.00 0.00 0.00
0.00 0.00 0.00 0.00 0.00 0.00 0.00 0.00 0.00 0.00 0.00 0.01 0.03 0.04 0.04 0.03 0.01 0.05 0.21 0.31 0.22 0.10 0.09 0.09 0.07 0.05 0.02 0.00 0.00 0.00 0.00 0.00 0.00 0.00 0.00 0.00 0.00 0.00 0.00 0.00 0.00 0.00 0.00
0.00 0.00 0.00 0.00 0.00 0.00 0.00 0.00 0.01 0.01 0.01 0.01 0.02 0.03 0.05 0.02 0.01 0.01 0.03 0.11 0.34 0.39 0.27 0.13 0.08 0.05 0.02 0.01 0.00 0.00 0.00 0.00 0.00 0.00 0.00 0.00 0.00 0.00 0.00 0.00 0.00 0.00 0.00
0.01 0.01 0.00 0.00 0.00 0.00 0.00 0.00 0.00 0.01 0.02 0.04 0.04 0.05 0.05 0.05 0.02 0.00 0.01 0.02 0.06 0.16 0.34 0.19 0.06 0.06 0.03 0.01 0.00 0.00 0.00 0.00 0.00 0.00 0.00 0.00 0.00 0.00 0.00 0.00 0.00 0.00 0.00
0.01 0.01 0.01 0.01 0.00 0.00 0.00 0.01 0.02 0.02 0.03 0.06 0.08 0.08 0.11 0.07 0.04 0.03 0.02 0.05 0.08 0.08 0.11 0.07 0.09 0.03 0.00 0.00 0.00 0.00 0.00 0.00 0.00 0.00 0.00 0.00 0.00 0.00 0.00 0.00 0.00 0.00 0.00
0.01 0.01 0.01 0.01 0.01 0.01 0.01 0.01 0.01 0.02 0.03 0.04 0.06 0.08 0.10 0.16 0.12 0.08 0.06 0.11 0.22 0.17 0.15 0.10 0.08 0.04 0.01 0.00 0.01 0.02 0.00 0.00 0.00 0.00 0.00 0.00 0.00 0.00 0.00 0.00 0.00 0.00 0.00
0.01 0.01 0.02 0.01 0.04 0.09 0.06 0.02 0.01 0.01 0.03 0.05 0.06 0.05 0.06 0.05 0.07 0.08 0.08 0.09 0.13 0.28 0.29 0.27 0.31 0.19 0.07 0.05 0.06 0.06 0.03 0.02 0.01 0.01 0.00 0.00 0.00 0.00 0.00 0.00 0.00 0.00 0.00
0.02 0.03 0.03 0.03 0.07 0.22 0.13 0.07 0.01 0.02 0.02 0.04 0.04 0.03 0.01 0.01 0.01 0.02 0.01 0.03 0.07 0.10 0.25 0.39 0.60 0.71 0.52 0.13 0.07 0.03 0.02 0.04 0.03 0.04 0.06 0.05 0.03 0.03 0.02 0.02 0.02 0.01 0.00
0.05 0.06 0.05 0.06 0.08 0.15 0.15 0.20 0.05 0.02 0.08 0.03 0.03 0.02 0.00 0.01 0.01 0.01 0.01 0.00 0.01 0.04 0.09 0.21 0.51 0.79 0.98 0.55 0.21 0.11 0.08 0.08 0.09 0.08 0.09 0.08 0.06 0.04 0.03 0.04 0.04 0.04 0.04
0.02 0.04 0.09 0.08 0.07 0.05 0.05 0.09 0.07 0.04 0.01 0.00 0.00 0.00 0.00 0.00 0.00 0.01 0.01 0.00 0.00 0.00 0.02 0.05 0.17 0.60 0.84 0.94 0.66 0.43 0.22 0.14 0.07 0.03 0.03 0.02 0.02 0.02 0.02 0.02 0.02 0.01 0.01
0.00 0.01 0.02 0.05 0.06 0.06 0.13 0.08 0.05 0.04 0.02 0.00 0.00 0.00 0.01 0.01 0.01 0.02 0.02 0.03 0.03 0.01 0.03 0.03 0.08 0.29 0.51 0.54 0.58 0.51 0.27 0.18 0.12 0.05 0.04 0.04 0.03 0.01 0.01 0.01 0.01 0.01 0.01
0.00 0.00 0.00 0.00 0.02 0.01 0.03 0.04 0.02 0.04 0.07 0.06 0.06 0.04 0.02 0.02 0.02 0.05 0.09 0.07 0.09 0.11 0.08 0.08 0.15 0.18 0.26 0.36 0.42 0.37 0.25 0.19 0.17 0.10 0.08 0.05 0.03 0.02 0.00 0.00 0.03 0.03 0.02
0.00 0.00 0.00 0.00 0.00 0.00 0.01 0.01 0.00 0.00 0.01 0.03 0.05 0.07 0.12 0.12 0.08 0.09 0.15 0.18 0.14 0.12 0.18 0.14 0.11 0.15 0.16 0.16 0.23 0.32 0.24 0.18 0.21 0.16 0.10 0.07 0.05 0.05 0.02 0.03 0.05 0.06 0.06
0.00 0.00 0.00 0.00 0.00 0.00 0.00 0.00 0.00 0.00 0.01 0.02 0.03 0.05 0.05 0.06 0.09 0.09 0.10 0.14 0.19 0.18 0.14 0.10 0.10 0.14 0.15 0.13 0.10 0.10 0.11 0.15 0.16 0.13 0.13 0.17 0.15 0.11 0.10 0.08 0.08 0.06 0.09
0.00 0.00 0.00 0.00 0.00 0.00 0.00 0.00 0.00 0.00 0.01 0.01 0.02 0.02 0.02 0.02 0.03 0.04 0.04 0.03 0.03 0.04 0.04 0.04 0.04 0.05 0.06 0.07 0.08 0.09 0.12 0.12 0.15 0.16 0.16 0.17 0.16 0.15 0.11 0.08 0.07 0.08 0.09
0.00 0.00 0.00 0.00 0.00 0.00 0.00 0.00 0.00 0.00 0.00 0.00 0.01 0.01 0.01 0.01 0.01 0.02 0.02 0.02 0.02 0.02 0.01 0.01 0.01 0.00 0.00 0.00 0.00 0.00 0.01 0.02 0.04 0.06 0.06 0.10 0.13 0.17 0.20 0.18 0.11 0.06 0.05
MSLP
1014.04 1013.29 1012.44 1011.70 1010.91 1010.04 1009.34 1009.22 1009.34 1009.00 1009.04 1008.93 1008.91 1008.78 1008.29 1007.97 1008.46 1009.09 1009.32 1010.06 1009.83 1010.54 1011.35 1011.66 1012.02 1012.49 1012.94 1013.43 1013.96 1014.41 1014.86 1015.24 1015.55 1015.94 1016.34 1016.99 1017.61 1017.89 1018.29 1018.71 1019.12 1019.55 1019.94
1014.50 1013.90 1013.04 1012.12 1011.18 1010.36 1009.65 1008.86 1008.35 1008.54 1008.67 1008.61 1008.41 1008.39 1008.28 1007.80 1007.55 1008.24 1008.33 1009.72 1009.69 1009.91 1010.81 1011.24 1011.51 1011.92 1012.43 1012.93 1013.50 1014.01 1014.42 1014.91 1015.35 1015.80 1016.31 1016.79 1017.41 1017.87 1018.23 1018.59 1019.05 1019.40 1019.77
1014.63 1014.35 1013.58 1012.64 1011.66 1010.85 1010.11 1009.31 1008.38 1007.97 1008.09 1008.16 1008.18 1007.98 1007.99 1007.85 1007.24 1007.42 1007.92 1008.32 1009.31 1009.51 1010.07 1010.80 1011.10 1011.44 1011.87 1012.36 1012.93 1013.46 1013.95 1014.56 1015.02 1015.57 1016.17 1016.51 1017.08 1017.59 1018.02 1018.40 1018.81 1019.23 1019.59
1014.70 1014.32 1013.56 1012.78 1011.97 1011.25 1010.41 1009.56 1008.65 1007.56 1007.05 1007.21 1007.52 1007.53 1007.49 1007.37 1007.23 1006.86 1007.15 1007.65 1007.96 1008.38 1009.52 1010.04 1010.57 1010.87 1011.30 1011.76 1012.23 1012.89 1013.43 1014.01 1014.63 1015.18 1015.73 1016.34 1016.74 1017.22 1017.64 1018.07 1018.55 1018.96 1019.36
1014.77 1014.31 1013.59 1012.86 1012.36 1011.63 1010.73 1009.92 1008.89 1008.10 1007.29 1006.47 1006.58 1006.76 1006.83 1006.83 1006.74 1006.54 1006.53 1007.05 1007.40 1007.30 1007.86 1008.97 1009.62 1010.20 1010.65 1011.17 1011.62 1012.21 1012.83 1013.42 1014.02 1014.62 1015.14 1015.77 1016.28 1016.84 1017.27 1017.70 1018.17 1018.59 1019.00
1014.93 1014.53 1014.19 1013.50 1012.88 1012.09 1011.08 1009.96 1009.10 1008.16 1007.53 1006.95 1005.99 1005.74 1006.03 1006.43 1006.25 1006.13 1005.85 1006.02 1006.79 1006.84 1006.88 1007.38 1008.67 1009.31 1010.00 1010.52 1011.04 1011.45 1012.10 1012.77 1013.33 1013.94 1014.54 1015.11 1015.66 1016.31 1016.84 1017.25 1017.65 1018.08 1018.55
1015.19 1015.00 1014.68 1014.22 1013.76 1012.65 1011.50 1010.58 1009.36 1008.35 1007.54 1006.98 1006.45 1005.81 1005.87 1006.01 1005.97 1005.82 1005.31 1005.40 1005.49 1006.34 1006.53 1006.81 1007.39 1008.06 1008.94 1009.80 1010.37 1010.77 1011.28 1011.90 1012.57 1013.29 1013.95 1014.52 1015.10 1015.68 1016.24 1016.69 1017.04 1017.50 1017.96
1015.48 1015.02 1014.62 1013.93 1013.39 1012.80 1012.03 1011.22 1010.31 1008.86 1007.38 1006.68 1005.66 1005.57 1005.12 1005.43 1005.43 1005.05 1005.03 1004.66 1002.94 1005.50 1006.00 1006.37 1006.77 1006.97 1007.11 1008.32 1009.29 1010.07 1010.58 1011.20 1011.83 1012.51 1013.21 1013.84 1014.49 1015.05 1015.54 1016.03 1016.53 1016.98 1017.41
1015.17 1014.67 1014.08 1013.51 1013.01 1012.52 1011.73 1011.09 1010.29 1009.58 1008.27 1006.51 1005.13 1004.76 1004.38 1003.48 1004.38 1004.49 1004.18 1004.22 1004.32 1005.24 1005.66 1005.83 1006.10 1006.21 1006.52 1006.94 1007.97 1009.06 1009.86 1010.60 1011.13 1011.72 1012.37 1013.06 1013.73 1014.29 1014.89 1015.39 1015.91 1016.36 1016.82
1015.00 1014.23 1013.68 1013.10 1012.50 1011.94 1011.27 1010.54 1009.91 1009.02 1008.37 1006.83 1005.46 1003.85 1003.71 1003.17 1003.15 1003.73 1003.88 1002.46 1004.34 1004.95 1005.28 1005.42 1005.61 1005.63 1005.57 1006.09 1006.67 1007.62 1008.81 1009.83 1010.50 1010.99 1011.55 1012.19 1012.84 1013.49 1013.98 1014.57 1015.14 1015.61 1016.13
1015.22 1014.44 1013.87 1013.25 1012.32 1011.64 1010.76 1009.94 1009.29 1008.73 1007.67 1006.72 1005.64 1003.99 1003.11 1003.27 1003.51 1003.23 1002.98 1003.23 1003.69 1004.21 1004.75 1004.82 1004.97 1005.10 1005.12 1005.32 1005.60 1006.42 1007.51 1008.64 1009.68 1010.32 1010.80 1011.29 1011.94 1012.62 1013.19 1013.68 1014.26 1014.79 1015.33
1015.34 1014.68 1013.80 1013.03 1012.02 1011.11 1010.24 1009.40 1008.69 1007.87 1007.40 1006.10 1005.33 1004.23 1003.03 1002.38 1002.37 1002.99 1003.20 1003.19 1002.94 1003.33 1003.56 1004.00 1004.41 1004.45 1004.42 1004.65 1004.85 1005.04 1006.34 1007.52 1008.48 1009.46 1010.00 1010.52 1011.12 1011.75 1012.31 1012.78 1013.43 1013.98 1014.49
1015.71 1014.98 1014.13 1012.88 1011.66 1010.58 1009.54 1008.66 1007.84 1006.99 1006.23 1005.47 1004.50 1003.66 1002.82 1001.82 1001.53 1001.84 1002.75 1002.78 1003.13 1003.23 1003.44 1003.17 1003.58 1003.64 1003.72 1004.03 1004.25 1004.52 1005.40 1006.42 1007.40 1008.38 1009.15 1009.69 1010.32 1010.99 1011.62 1012.12 1012.57 1013.09 1013.64
1016.39 1015.39 1014.35 1013.08 1011.68 1010.33 1008.90 1007.52 1005.97 1005.85 1005.29 1004.52 1003.79 1003.04 1002.23 1001.59 1001.27 1001.41 1001.68 1002.32 1002.85 1003.07 1002.82 1000.73 1002.13 1002.61 1002.74 1003.13 1003.10 1003.52 1004.59 1005.48 1006.35 1007.26 1008.22 1008.85 1009.50 1010.07 1010.72 1011.35 1011.74 1012.16 1012.66
1016.86 1015.68 1014.58 1013.25 1011.59 1010.18 1008.69 1006.85 1005.36 1004.66 1004.32 1003.58 1003.10 1002.42 1001.64 1000.96 1000.60 1000.67 1000.98 1001.29 1001.56 1001.78 1001.61 1001.24 1001.69 1001.57 1001.82 1001.98 1002.25 1002.56 1003.08 1004.65 1005.59 1006.28 1007.11 1007.85 1008.61 1009.13 1009.76 1010.41 1010.96 1011.38 1011.83
1017.30 1016.30 1015.13 1013.74 1012.15 1010.72 1009.20 1007.55 1006.04 1005.01 1004.78 1004.73 1004.18 1002.84 1001.93 1000.96 1000.55 1000.38 1000.61 1001.02 1001.18 1000.98 1000.60 1000.69 1000.80 1000.50 1000.58 1000.78 1001.40 1001.77 1002.11 1003.20 1004.54 1005.44 1006.15 1006.95 1007.62 1008.24 1008.76 1009.34 1009.98 1010.63 1011.14
1017.88 1016.77 1015.74 1014.41 1013.04 1011.64 1010.59 1009.18 1007.81 1006.30 1006.07 1005.68 1005.24 1004.55 1003.75 1002.85 1002.29 1001.45 1000.83 1000.70 1000.88 1000.90 1000.96 1000.93 1000.86 1000.42 1000.16 1000.18 1000.72 1001.37 1001.54 1002.42 1003.55 1004.55 1005.13 1005.73 1006.48 1007.25 1007.93 1008.47 1008.94 1009.53 1010.17
1018.74 1017.75 1016.52 1015.30 1014.12 1013.34 1012.14 1010.51 1009.66 1008.42 1007.97 1006.18 1006.19 1005.20 1004.44 1004.25 1003.80 1003.34 1002.80 1002.47 1001.44 1000.86 1000.67 1000.75 1000.94 1000.64 1000.59 999.37 1000.23 1000.75 1001.10 1001.66 1002.45 1003.46 1004.35 1005.12 1005.84 1006.41 1007.14 1007.80 1008.34 1008.83 1009.32
1019.50 1018.65 1017.57 1016.53 1015.69 1014.80 1013.51 1012.06 1011.12 1009.70 1008.99 1008.59 1007.78 1007.42 1006.33 1006.31 1005.68 1005.03 1004.54 1003.98 1003.35 1002.40 1001.17 1001.04 1001.16 1001.26 1001.55 1001.82 1001.51 999.85 1001.08 1001.58 1002.53 1003.24 1004.21 1005.00 1005.82 1006.49 1007.10 1007.65 1008.23 1008.81 1009.17
1020.36 1019.64 1018.96 1017.91 1016.93 1016.07 1015.03 1014.08 1012.77 1011.66 1011.22 1009.85 1008.35 1008.61 1008.80 1008.34 1007.87 1007.15 1006.54 1005.87 1004.85 1003.97 1002.87 1001.93 1002.23 1003.16 1003.74 1003.46 1004.22 1001.93 1002.16 1004.00 1004.39 1004.59 1004.88 1005.16 1005.70 1006.42 1007.23 1007.78 1008.26 1008.52 1008.84
1021.15 1020.54 1019.78 1018.97 1017.97 1016.92 1016.22 1014.92 1013.74 1012.80 1011.70 1011.02 1010.96 1010.99 1010.47 1010.19 1009.96 1009.60 1008.53 1007.72 1006.68 1006.27 1005.41 1004.57 1004.32 1005.14 1005.32 1005.68 1005.85 1005.75 1004.62 1004.60 1005.83 1006.31 1005.88 1006.20 1006.39 1007.14 1007.94 1008.45 1008.74 1008.96 1008.82
1021.56 1021.05 1020.39 1019.72 1019.19 1018.37 1017.78 1016.89 1016.02 1015.23 1014.49 1013.57 1013.13 1012.76 1012.47 1011.87 1011.42 1011.28 1010.55 1009.66 1009.08 1008.74 1008.38 1007.68 1008.02 1007.20 1008.30 1008.02 1008.02 1007.06 1006.85 1006.28 1006.58 1007.19 1007.23 1007.70 1007.83 1008.42 1009.02 1009.20 1009.42 1009.42 1009.44
1022.00 1021.67 1021.18 1020.63 1019.97 1019.79 1018.88 1018.01 1017.39 1016.59 1016.36 1016.06 1015.47 1015.00 1014.03 1013.59 1013.02 1012.33 1012.14 1011.07 1010.59 1010.89 1011.08 1011.17 1010.03 1009.17 1010.03 1009.69 1008.98 1007.55 1007.79 1008.46 1008.86 1009.37 1008.56 1008.51 1009.36 1009.72 1009.83 1010.20 1009.85 1009.94 1009.75
1022.61 1022.40 1022.39 1021.88 1021.38 1020.97 1020.18 1018.95 1018.27 1017.91 1017.98 1017.95 1017.68 1017.06 1016.40 1015.58 1015.03 1014.08 1013.51 1012.81 1012.63 1012.78 1013.08 1012.36 1011.39 1011.26 1011.03 1010.63 1010.17 1010.02 1009.51 1010.06 1010.15 1010.16 1010.12 1009.97 1010.38 1010.93 1010.47 1010.63 1011.02 1010.21 1010.58
1023.22 1023.15 1023.01 1022.95 1022.34 1022.10 1021.64 1020.86 1019.62 1019.27 1019.22 1019.39 1019.15 1018.80 1018.30 1017.56 1016.98 1016.22 1015.16 1014.58 1014.45 1013.90 1013.65 1013.56 1012.68 1011.99 1011.57 1012.19 1011.33 1010.52 1010.41 1010.32 1010.90 1011.54 1011.90 1011.59 1011.88 1011.84 1011.03 1010.83 1011.66 1011.20 1010.68
1023.91 1023.74 1023.75 1023.62 1023.50 1022.99 1022.80 1022.16 1021.50 1021.02 1020.61 1020.10 1020.22 1020.11 1019.71 1019.08 1018.53 1017.64 1017.07 1016.83 1016.42 1015.90 1015.47 1014.89 1013.88 1013.70 1013.07 1013.04 1012.84 1012.33 1012.54 1012.20 1012.29 1012.03 1012.89 1012.55 1012.69 1012.42 1011.77 1011.72 1011.74 1012.08 1010.44
Thickness
5636 5641 5647 5652 5658 5666 5673 5677 5675 5679 5679 5680 5681 5685 5691 5696 5693 5689 5689 5686 5689 5684 5679 5678 5676 5673 5670 5666 5662 5658 5655 5652 5648 5647 5644 5640 5639 5641 5639 5638 5638 5637 5636
5620 5624 5632 5638 5646 5653 5659 5668 5674 5673 5672 5674 5675 5679 5683 5688 5693 5690 5689 5681 5684 5684 5677 5676 5675 5673 5670 5667 5663 5658 5655 5650 5646 5644 5641 5639 5636 5636 5636 5635 5634 5634 5633
5604 5606 5613 5621 5630 5635 5643 5651 5662 5667 5669 5669 5669 5674 5677 5680 5687 5690 5687 5685 5680 5681 5677 5674 5673 5671 5670 5667 5663 5660 5655 5650 5647 5643 5638 5636 5635 5634 5634 5633 5631 5630 5630
5587 5590 5597 5605 5612 5620 5627 5634 5645 5656 5663 5665 5664 5666 5671 5676 5679 5685 5685 5683 5682 5682 5676 5674 5672 5671 5669 5667 5665 5660 5656 5652 5648 5645 5642 5637 5636 5634 5632 5631 5628 5627 5626
5570 5574 5580 5586 5591 5600 5609 5617 5627 5636 5645 5657 5660 5661 5665 5668 5673 5679 5682 5681 5680 5683 5682 5676 5673 5671 5669 5667 5665 5661 5656 5653 5650 5646 5643 5639 5637 5634 5631 5629 5627 5625 5623
5552 5555 5559 5565 5568 5576 5587 5599 5608 5619 5629 5638 5650 5657 5658 5659 5665 5669 5676 5680 5676 5678 5681 5682 5672 5671 5669 5666 5664 5662 5657 5653 5650 5647 5644 5641 5638 5634 5631 5629 5627 5625 5624
5532 5534 5537 5542 5544 5554 5565 5576 5589 5600 5611 5622 5627 5638 5643 5648 5652 5658 5669 5673 5676 5674 5675 5676 5677 5673 5671 5666 5663 5662 5659 5656 5651 5647 5644 5642 5638 5635 5632 5630 5628 5626 5625
5513 5516 5519 5525 5530 5535 5543 5552 5563 5578 5596 5605 5617 5621 5627 5634 5640 5651 5657 5667 5678 5671 5670 5670 5673 5675 5677 5671 5666 5661 5659 5656 5652 5648 5645 5642 5639 5636 5633 5631 5628 5626 5624
5502 5505 5509 5513 5518 5523 5531 5538 5547 5553 5568 5589 5607 5612 5615 5631 5634 5641 5651 5656 5661 5657 5660 5666 5665 5671 5673 5675 5669 5663 5659 5655 5652 5650 5646 5643 5640 5637 5634 5631 5628 5626 5624
5490 5495 5498 5502 5508 5513 5520 5529 5536 5547 5554 5570 5587 5609 5614 5625 5626 5628 5635 5641 5642 5644 5650 5658 5660 5665 5670 5671 5672 5667 5661 5655 5651 5649 5646 5644 5641 5638 5636 5633 5630 5628 5625
5476 5480 5484 5488 5496 5501 5510 5519 5526 5533 5546 5557 5572 5590 5601 5606 5609 5618 5628 5635 5638 5642 5642 5649 5656 5659 5664 5666 5671 5670 5663 5657 5652 5649 5647 5645 5642 5638 5636 5634 5632 5629 5626
5465 5469 5475 5479 5486 5493 5501 5508 5515 5524 5532 5548 5561 5574 5587 5596 5603 5606 5613 5620 5630 5636 5639 5644 5647 5653 5660 5661 5666 5672 5666 5657 5653 5648 5647 5645 5642 5639 5637 5635 5632 5629 5627
5450 5454 5459 5469 5477 5485 5492 5498 5506 5514 5526 5538 5554 5565 5575 5591 5601 5604 5601 5611 5612 5621 5626 5634 5638 5647 5654 5656 5661 5666 5665 5657 5653 5649 5645 5644 5642 5639 5636 5634 5632 5630 5626
5437 5442 5446 5453 5463 5472 5481 5492 5505 5509 5518 5532 5546 5559 5570 5581 5591 5595 5598 5599 5597 5602 5610 5629 5637 5643 5652 5654 5660 5664 5660 5655 5651 5649 5644 5642 5641 5638 5635 5631 5631 5629 5627
5426 5430 5435 5442 5450 5457 5467 5479 5493 5503 5511 5524 5537 5551 5565 5576 5584 5591 5594 5598 5598 5600 5613 5626 5628 5643 5650 5655 5658 5660 5662 5655 5649 5648 5645 5642 5638 5637 5635 5632 5630 5629 5627
5415 5418 5419 5427 5433 5438 5445 5455 5468 5480 5487 5497 5511 5532 5548 5564 5572 5579 5586 5590 5591 5600 5612 5624 5629 5639 5649 5656 5654 5655 5657 5655 5646 5643 5641 5639 5637 5635 5634 5633 5630 5627 5625
5403 5405 5406 5412 5415 5418 5415 5421 5432 5449 5459 5474 5487 5501 5515 5533 5542 5557 5573 5583 5584 5591 5599 5609 5619 5627 5636 5644 5646 5645 5649 5647 5642 5638 5639 5639 5636 5633 5631 5630 5629 5627 5623
5391 5391 5394 5398 5399 5394 5398 5403 5405 5419 5434 5459 5468 5485 5498 5509 5517 5528 5540 5554 5571 5581 5590 5597 5608 5618 5625 5632 5635 5635 5640 5643 5641 5636 5633 5631 5631 5630 5627 5625 5624 5623 5621
5380 5382 5383 5385 5384 5380 5383 5390 5394 5408 5421 5433 5449 5460 5475 5482 5493 5504 5514 5525 5538 5556 5576 5585 5592 5595 5596 5598 5604 5629 5622 5625 5623 5621 5617 5617 5618 5617 5617 5615 5613 5610 5611
5370 5371 5370 5372 5374 5373 5374 5375 5384 5395 5403 5421 5440 5446 5451 5460 5469 5480 5490 5500 5516 5531 5547 5569 5572 5567 5567 5568 5572 5591 5599 5585 5588 5595 5599 5603 5604 5603 5600 5600 5601 5604 5606
5365 5362 5362 5362 5365 5369 5370 5376 5381 5389 5402 5412 5418 5423 5432 5439 5445 5454 5468 5479 5492 5499 5512 5524 5535 5534 5539 5542 5549 5550 5570 5573 5562 5563 5575 5579 5585 5583 5580 5580 5582 5586 5591
5359 5359 5357 5357 5356 5360 5360 5365 5370 5374 5381 5391 5398 5405 5411 5420 5429 5436 5446 5457 5465 5470 5474 5483 5487 5503 5500 5510 5522 5532 5535 5551 5561 5545 5550 5552 5555 5556 5556 5559 5563 5568 5572
5354 5352 5352 5351 5352 5348 5353 5357 5361 5368 5369 5373 5379 5385 5396 5402 5409 5419 5424 5436 5442 5441 5442 5448 5463 5477 5477 5488 5501 5516 5516 5518 5517 5516 5527 5534 5528 5530 5533 5535 5544 5548 5554
5346 5344 5341 5341 5340 5339 5342 5350 5353 5356 5355 5355 5358 5365 5372 5379 5385 5395 5403 5411 5416 5418 5417 5430 5442 5449 5457 5467 5475 5480 5489 5490 5492 5496 5500 5509 5506 5505 5514 5517 5518 5529 5530
5337 5336 5334 5332 5333 5330 5331 5334 5342 5344 5343 5341 5343 5347 5350 5355 5361 5368 5379 5388 5390 5397 5402 5409 5423 5432 5439 5441 5451 5461 5468 5474 5476 5472 5470 5477 5479 5483 5492 5499 5496 5504 5512
5325 5326 5324 5324 5323 5324 5323 5325 5329 5332 5333 5335 5331 5331 5336 5339 5343 5351 5356 5361 5368 5375 5381 5390 5400 5405 5413 5418 5425 5431 5435 5443 5449 5455 5446 5455 5456 5461 5471 5472 5474 5474 5494